Airfield :
LOGIN :

Register | Disclaimer

   EN    FR    IT 

 










Legend :    VFR   Marginal VFR   IFR   Intensive IFR   Very Intensive IFR
Visi :
Ceiling :
>= 8 km
>= 3000ft
5 to 8 km
1000 to 3000 ft
1500m to 5 km
500 to 1000 ft
800 to 1500m
200 to 500 ft
< 800m
< 200 ft
Symbols :   Thunderstorms  Fog  Heavy snow  Heavy precipitations  Wind > 20 kt
SIGMETs :     Misc.  Thunderstorms  Icing  Turbulence  Mountain Waves  Volcanic Ashes






- Airport Elevation : 796 ft
- IATA code : SYT


LFLN - Saint-Yan

CURRENT METAR :
  • 261230Z AUTO 16009KT CAVOK 15/07 Q1019 NOSIG

EXPIRED METARs :
  • 261200Z AUTO 15006KT 110V180 CAVOK 15/07 Q1019 NOSIG
  • 261130Z AUTO 15004KT 110V200 CAVOK 14/07 Q1020 NOSIG
  • 261100Z AUTO VRB03KT CAVOK 13/06 Q1020 NOSIG
  • 261030Z AUTO VRB02KT 9999 -RA NSC 12/06 Q1020 NOSIG
  • 261000Z AUTO VRB03KT CAVOK 09/07 Q1021 NOSIG

TAF TAF LFLN
Valid from the 26 at 12:00 until the 26 at 21:00 UTC


261100Z 2612/2621 06004KT CAVOK
TEMPO 2618/2621 3000 BR



MET'MAP, your aeronautical weather chart ! - Copyright ORBIFLY December 2007 - Disclaimer

ORBIFLY MET'MAP TEAM :

Programming & Development : Alexandra Zaïnal
Concept & original design : Baudouin d'Aumeries
Assistance for programming : Marc-Olivier Méhu
Technical & hardware support : Manuel Goepfert

Contact : metmap@orbifly.com




SOURCES & CREDITS :

   NOAA